• In Hungary
  • List of Countries
  • For 7 days
  • Water Temperature
  • Satellite Maps
  • Weather Map
  • News
  • Weather Widgets
  • user-avatar
    Login

    Hourly Weather Shmakova Balka

    Today, 22 October, Monday

    Time Temperature Precipitation Wind Pressure Humidity
    00:00 +9°C° 0.3 mm 5 mps 756 mmHg 70%
    01:00 +9°C° 0.3 mm 5 mps 756 mmHg 73%
    02:00 +9°C° 0.3 mm 5 mps 756 mmHg 75%
    03:00 +8°C° 0.3 mm 5 mps 756 mmHg 77%
    04:00 +8°C° 0.1 mm 5 mps 756 mmHg 77%
    05:00 +8°C° 0.1 mm 5 mps 756 mmHg 78%
    06:00 +8°C° 0.1 mm 4 mps 756 mmHg 78%
    07:00 +8°C° 0 mm 4 mps 757 mmHg 76%
    08:00 +8°C° 0 mm 4 mps 757 mmHg 75%
    09:00 +8°C° 0 mm 4 mps 757 mmHg 73%
    10:00 +10°C° 0 mm 4 mps 757 mmHg 70%
    11:00 +11°C° 0 mm 4 mps 757 mmHg 67%
    12:00 +11°C° 0 mm 4 mps 757 mmHg 64%
    13:00 +12°C° 0 mm 4 mps 757 mmHg 62%
    14:00 +12°C° 0 mm 4 mps 756 mmHg 60%
    15:00 +13°C° 0 mm 4 mps 756 mmHg 59%
    16:00 +12°C° 0 mm 3 mps 756 mmHg 62%
    17:00 +11°C° 0 mm 3 mps 756 mmHg 65%
    18:00 +10°C° 0 mm 3 mps 755 mmHg 68%
    19:00 +10°C° 0 mm 3 mps 755 mmHg 67%
    20:00 +10°C° 0 mm 3 mps 755 mmHg 66%
    21:00 +10°C° 0 mm 3 mps 755 mmHg 65%
    22:00 +10°C° 0 mm 4 mps 754 mmHg 65%
    23:00 +10°C° 0 mm 4 mps 754 mmHg 64%

    Tomorrow, 23 October, Tuesday

    Time Temperature Precipitation Wind Pressure Humidity
    00:00 +10°C° 0 mm 4 mps 754 mmHg 64%
    01:00 +10°C° 0 mm 4 mps 753 mmHg 65%
    02:00 +10°C° 0 mm 4 mps 753 mmHg 66%
    03:00 +10°C° 0 mm 4 mps 752 mmHg 67%
    04:00 +9°C° 0 mm 5 mps 751 mmHg 68%
    05:00 +9°C° 0 mm 5 mps 751 mmHg 69%
    06:00 +9°C° 0 mm 5 mps 750 mmHg 71%
    07:00 +9°C° 0.7 mm 5 mps 749 mmHg 73%
    08:00 +9°C° 0.7 mm 5 mps 749 mmHg 76%
    09:00 +9°C° 0.7 mm 5 mps 749 mmHg 78%
    10:00 +10°C° 0.7 mm 6 mps 748 mmHg 74%
    11:00 +10°C° 0.7 mm 6 mps 747 mmHg 71%
    12:00 +11°C° 0.7 mm 7 mps 746 mmHg 67%
    13:00 +12°C° 0.1 mm 7 mps 746 mmHg 69%
    14:00 +12°C° 0.1 mm 7 mps 746 mmHg 72%
    15:00 +14°C° 0.1 mm 7 mps 745 mmHg 74%
    16:00 +14°C° 0.2 mm 6 mps 745 mmHg 79%
    17:00 +13°C° 0.2 mm 5 mps 745 mmHg 84%
    18:00 +12°C° 0.2 mm 4 mps 745 mmHg 88%
    19:00 +11°C° 0 mm 4 mps 745 mmHg 89%
    20:00 +11°C° 0 mm 4 mps 745 mmHg 89%
    21:00 +10°C° 0 mm 4 mps 745 mmHg 89%
    22:00 +8°C° 0 mm 4 mps 744 mmHg 90%
    23:00 +9°C° 0 mm 3 mps 744 mmHg 91%

    Day after tomorrow, 24 October, Wednesday

    Time Temperature Precipitation Wind Pressure Humidity
    00:00 +8°C° 0 mm 3 mps 744 mmHg 92%
    01:00 +8°C° 0 mm 3 mps 744 mmHg 92%
    02:00 +7°C° 0 mm 3 mps 743 mmHg 92%
    03:00 +7°C° 0 mm 3 mps 743 mmHg 92%
    04:00 +7°C° 0 mm 3 mps 743 mmHg 90%
    05:00 +5°C° 0 mm 4 mps 742 mmHg 88%
    06:00 +5°C° 0 mm 4 mps 742 mmHg 86%
    07:00 +6°C° 0 mm 5 mps 742 mmHg 79%
    08:00 +7°C° 0 mm 5 mps 742 mmHg 72%
    09:00 +8°C° 0 mm 6 mps 742 mmHg 65%
    10:00 +9°C° 0 mm 7 mps 741 mmHg 60%
    11:00 +10°C° 0 mm 7 mps 741 mmHg 55%
    12:00 +11°C° 0 mm 7 mps 741 mmHg 51%
    13:00 +12°C° 0 mm 7 mps 740 mmHg 51%
    14:00 +12°C° 0 mm 7 mps 740 mmHg 52%
    15:00 +14°C° 0 mm 7 mps 739 mmHg 53%
    16:00 +12°C° 0 mm 7 mps 739 mmHg 56%
    17:00 +11°C° 0 mm 6 mps 739 mmHg 59%
    18:00 +12°C° 0 mm 5 mps 738 mmHg 62%
    19:00 +11°C° 0.1 mm 6 mps 738 mmHg 64%
    20:00 +11°C° 0.1 mm 6 mps 738 mmHg 66%
    21:00 +11°C° 0.1 mm 7 mps 737 mmHg 68%
    22:00 +11°C° 0.4 mm 7 mps 737 mmHg 74%
    23:00 +11°C° 0.4 mm 7 mps 737 mmHg 80%

    25 October, Thursday

    Time Temperature Precipitation Wind Pressure Humidity
    00:00 +11°C° 0.4 mm 7 mps 737 mmHg 86%
    01:00 +11°C° 0.6 mm 7 mps 737 mmHg 86%
    02:00 +12°C° 0.6 mm 7 mps 736 mmHg 86%
    03:00 +12°C° 0.6 mm 7 mps 736 mmHg 86%
    04:00 +11°C° 0.1 mm 7 mps 736 mmHg 87%
    05:00 +11°C° 0.1 mm 7 mps 735 mmHg 88%
    06:00 +11°C° 0.1 mm 6 mps 735 mmHg 88%
    07:00 +11°C° 0.5 mm 7 mps 735 mmHg 87%
    08:00 +11°C° 0.5 mm 7 mps 735 mmHg 87%
    09:00 +11°C° 0.5 mm 7 mps 734 mmHg 86%
    10:00 +11°C° 0.9 mm 7 mps 734 mmHg 85%
    11:00 +12°C° 0.9 mm 8 mps 734 mmHg 85%
    12:00 +12°C° 0.9 mm 8 mps 734 mmHg 85%
    13:00 +11°C° 0.7 mm 8 mps 734 mmHg 81%
    14:00 +11°C° 0.7 mm 8 mps 734 mmHg 77%
    15:00 +11°C° 0.7 mm 8 mps 735 mmHg 73%
    16:00 +10°C° 0.1 mm 7 mps 735 mmHg 68%
    17:00 +9°C° 0.1 mm 7 mps 735 mmHg 63%
    18:00 +8°C° 0.1 mm 6 mps 735 mmHg 57%
    19:00 +8°C° 0 mm 6 mps 736 mmHg 59%
    20:00 +7°C° 0 mm 6 mps 736 mmHg 61%
    21:00 +7°C° 0 mm 6 mps 736 mmHg 62%
    22:00 +7°C° 0 mm 6 mps 736 mmHg 65%
    23:00 +5°C° 0 mm 6 mps 736 mmHg 68%

    26 October, Friday

    Time Temperature Precipitation Wind Pressure Humidity
    00:00 +5°C° 0 mm 6 mps 736 mmHg 71%
    01:00 +4°C° 0 mm 6 mps 736 mmHg 73%
    02:00 +4°C° 0 mm 7 mps 736 mmHg 75%
    03:00 +4°C° 0 mm 7 mps 737 mmHg 77%
    04:00 +4°C° 0 mm 7 mps 737 mmHg 76%
    05:00 +4°C° 0 mm 7 mps 737 mmHg 76%
    06:00 +4°C° 0 mm 7 mps 738 mmHg 76%
    07:00 +4°C° 0 mm 7 mps 739 mmHg 75%
    08:00 +4°C° 0 mm 7 mps 739 mmHg 74%
    09:00 +4°C° 0 mm 7 mps 740 mmHg 73%
    10:00 +4°C° 0.1 mm 7 mps 740 mmHg 71%
    11:00 +4°C° 0.1 mm 7 mps 741 mmHg 69%
    12:00 +4°C° 0.1 mm 7 mps 742 mmHg 67%
    13:00 +4°C° 0 mm 7 mps 742 mmHg 66%
    14:00 +4°C° 0 mm 7 mps 742 mmHg 65%
    15:00 +4°C° 0 mm 7 mps 743 mmHg 63%
    16:00 +3°C° 0 mm 6 mps 744 mmHg 65%
    17:00 +3°C° 0 mm 5 mps 744 mmHg 66%
    18:00 +3°C° 0 mm 4 mps 745 mmHg 68%
    19:00 +3°C° 0 mm 4 mps 745 mmHg 70%
    20:00 +3°C° 0 mm 4 mps 746 mmHg 71%
    21:00 +3°C° 0 mm 4 mps 746 mmHg 73%
    22:00 +3°C° 0 mm 4 mps 747 mmHg 74%
    23:00 +3°C° 0 mm 4 mps 747 mmHg 75%

    27 October, Saturday

    Time Temperature Precipitation Wind Pressure Humidity
    00:00 +1°C° 0 mm 4 mps 748 mmHg 77%
    01:00 +1°C° 0 mm 4 mps 748 mmHg 79%
    02:00 +2°C° 0 mm 3 mps 749 mmHg 82%
    03:00 +1°C° 0 mm 3 mps 749 mmHg 84%
    04:00 +1°C° 0 mm 3 mps 750 mmHg 85%
    05:00 +1°C° 0 mm 3 mps 750 mmHg 86%
    06:00 +1°C° 0 mm 3 mps 751 mmHg 87%
    07:00 +2°C° 0 mm 3 mps 751 mmHg 83%
    08:00 +3°C° 0 mm 4 mps 752 mmHg 79%
    09:00 +4°C° 0 mm 4 mps 752 mmHg 75%
    10:00 +5°C° 0 mm 5 mps 752 mmHg 69%
    11:00 +6°C° 0 mm 5 mps 753 mmHg 63%
    12:00 +8°C° 0 mm 6 mps 753 mmHg 57%
    13:00 +8°C° 0 mm 6 mps 753 mmHg 58%
    14:00 +8°C° 0 mm 6 mps 752 mmHg 58%
    15:00 +9°C° 0 mm 6 mps 752 mmHg 58%
    16:00 +8°C° 0 mm 6 mps 753 mmHg 63%
    17:00 +7°C° 0 mm 5 mps 753 mmHg 67%
    18:00 +6°C° 0 mm 4 mps 753 mmHg 72%
    19:00 +6°C° 0 mm 5 mps 753 mmHg 71%
    20:00 +7°C° 0 mm 5 mps 753 mmHg 70%
    21:00 +7°C° 0 mm 5 mps 753 mmHg 69%
    22:00 +7°C° 0 mm 5 mps 754 mmHg 71%
    23:00 +7°C° 0 mm 5 mps 754 mmHg 72%

    28 October, Sunday

    Time Temperature Precipitation Wind Pressure Humidity
    00:00 +7°C° 0 mm 5 mps 754 mmHg 73%
    01:00 +7°C° 0 mm 5 mps 754 mmHg 76%
    02:00 +7°C° 0 mm 5 mps 754 mmHg 79%
    03:00 +7°C° 0 mm 5 mps 754 mmHg 82%
    04:00 +7°C° 0 mm 5 mps 754 mmHg 85%
    05:00 +7°C° 0 mm 5 mps 754 mmHg 88%
    06:00 +7°C° 0 mm 5 mps 754 mmHg 91%
    07:00 +7°C° 0 mm 6 mps 755 mmHg 88%
    08:00 +8°C° 0 mm 6 mps 755 mmHg 85%
    09:00 +9°C° 0 mm 7 mps 755 mmHg 83%
    10:00 +10°C° 0 mm 7 mps 755 mmHg 76%
    11:00 +12°C° 0 mm 8 mps 755 mmHg 70%
    12:00 +13°C° 0 mm 8 mps 755 mmHg 64%
    13:00 +15°C° 0 mm 8 mps 755 mmHg 62%
    14:00 +15°C° 0 mm 8 mps 755 mmHg 60%
    15:00 +15°C° 0 mm 8 mps 754 mmHg 59%
    16:00 +15°C° 0 mm 8 mps 755 mmHg 63%
    17:00 +14°C° 0 mm 7 mps 755 mmHg 67%
    18:00 +12°C° 0 mm 7 mps 755 mmHg 71%
    19:00 +12°C° 0 mm 7 mps 755 mmHg 69%
    20:00 +12°C° 0 mm 7 mps 755 mmHg 68%
    21:00 +12°C° 0 mm 7 mps 755 mmHg 66%
    22:00 +11°C° 0 mm 7 mps 755 mmHg 66%
    23:00 +11°C° 0 mm 7 mps 755 mmHg 66%
    Show more